Location: Toronto
(43.6667°N, 79.4167°W)
Time: 11:58:47
(UTC-04:00)

X-37B - Pass Details

Date: 21 June 2021
Orbit: 383 x 392 km, 45.0° (Epoch: 01 July)

Event Time Altitude Azimuth Distance (km) Brightness Sun altitude
Rises 04:47:40 0° 281° (WNW) 2,260 4.1 -7.7°
Reaches altitude 10° 04:49:57 10° 268° (W) 1,405 3.0 -7.4°
Maximum altitude 04:52:36 25° 210° (SSW) 819 1.7 -7.0°
Drops below altitude 10° 04:55:16 10° 153° (SSE) 1,403 3.3 -6.7°
Sets 04:57:32 0° 139° (SE) 2,255 4.5 -6.4°
